Tracking 30685 objects as of 17-Jun-2025
HD Live streaming from Space Station
objects crossing your sky now

ONEWEB-0644

Track ONEWEB-0644 now!
10-day predictions
ONEWEB-0644 is classified as:


NORAD ID: 55808
Int'l Code: 2023-029N
Perigee: 1,191.2 km
Apogee: 1,194.6 km
Inclination: 87.9 °
Period: 109.1 minutes
Semi major axis: 7563 km
RCS: Unknown
Launch date: March 9, 2023
Source: United Kingdom (UK)
Launch site: AIR FORCE EASTERN TEST RANGE (AFETR)
Your satellite tracking list
Your tracking list is empty




NASA's NSSDC Master Catalog

Two Line Element Set (TLE):
1 55808U 23029N   25168.33890932 -.00000057  00000-0 -17571-3 0  9999
2 55808  87.9222  17.5282 0002240  96.2906 263.8482 13.19727372111472
Source of the keplerian elements: AFSPC